Location: Alfortville
(48.8058°N, 2.4204°E)
Time: 05:30:24
(UTC+00:00)

USA 229 DEB - Pass Details

Date: 29 May 2022
Orbit: 934 x 1278 km, 63.4° (Epoch: 24 May)

Event Time Altitude Azimuth Distance (km) Brightness Sun altitude
Rises 22:00:50 0° 316° (NW) 3,900 8.1 -15.5°
Reaches altitude 10° 22:03:32 10° 322° (NW) 2,991 7.3 -15.7°
Maximum altitude 22:10:29 50° 36° (NE) 1,482 4.6 -16.2°
Drops below altitude 10° 22:17:57 10° 111° (ESE) 3,204 5.8 -16.7°
Enters shadow 22:18:21 - 112° (ESE) 3,335 5.9 -16.7°
